Location: Unspecified
(0.0000°N, 0.0000°E)
Time: 06:56:33
(UTC+00:00)

Courier 1B - Pass Details

Date: 27 September 2023
Orbit: 962 x 1208 km, 28.3° (Epoch: 06 December)

Event Time Altitude Azimuth Distance (km) Brightness Sun altitude
Rises 23:19:11 0° 263° (W) 3,815 - -81.9°
Reaches altitude 10° 23:23:05 10° 243° (WSW) 2,812 - -82.8°
Maximum altitude 23:27:12 17° 206° (SSW) 2,313 - -83.8°
Drops below altitude 10° 23:31:15 10° 167° (SSE) 2,731 - -84.8°
Sets 23:34:58 0° 147° (SSE) 3,654 - -85.6°
